TimeEST,TemperatureF,Dew PointF,Humidity,Sea Level PressureIn,VisibilityMPH,Wind Direction,Wind SpeedMPH,Gust SpeedMPH,PrecipitationIn,Events,Conditions,WindDirDegrees,DateUTC
12:15 AM,44.6,32.0,61,29.98,10.0,SW,6.9,-,N/A,,Scattered Clouds,230,2013-02-15 05:15:00
12:35 AM,44.6,32.0,61,29.99,10.0,WSW,5.8,-,N/A,,Overcast,240,2013-02-15 05:35:00
12:55 AM,42.8,32.0,66,29.99,10.0,WSW,3.5,-,N/A,,Mostly Cloudy,250,2013-02-15 05:55:00
1:15 AM,42.8,32.0,66,29.99,10.0,WSW,4.6,-,N/A,,Scattered Clouds,250,2013-02-15 06:15:00
1:35 AM,41.0,32.0,70,30.00,10.0,West,3.5,-,N/A,,Clear,270,2013-02-15 06:35:00
1:55 AM,41.0,32.0,70,30.01,10.0,WNW,4.6,-,N/A,,Mostly Cloudy,300,2013-02-15 06:55:00
2:15 AM,39.2,32.0,75,30.01,10.0,North,3.5,-,N/A,,Scattered Clouds,360,2013-02-15 07:15:00
2:35 AM,37.4,30.2,75,30.01,10.0,North,5.8,-,N/A,,Clear,10,2013-02-15 07:35:00
2:55 AM,37.4,32.0,81,30.02,10.0,NNE,3.5,-,N/A,,Clear,20,2013-02-15 07:55:00
3:15 AM,37.4,32.0,81,30.02,10.0,NNE,3.5,-,N/A,,Scattered Clouds,20,2013-02-15 08:15:00
3:35 AM,35.6,32.0,87,30.02,10.0,Calm,Calm,-,N/A,,Mostly Cloudy,0,2013-02-15 08:35:00
3:55 AM,35.6,32.0,87,30.01,10.0,East,3.5,-,N/A,,Mostly Cloudy,80,2013-02-15 08:55:00
4:15 AM,35.6,30.2,81,30.01,10.0,ESE,3.5,-,N/A,,Scattered Clouds,120,2013-02-15 09:15:00
4:35 AM,35.6,32.0,87,30.02,10.0,Calm,Calm,-,N/A,,Clear,0,2013-02-15 09:35:00
4:55 AM,35.6,32.0,87,30.02,10.0,Calm,Calm,-,N/A,,Mostly Cloudy,0,2013-02-15 09:55:00
5:15 AM,33.8,30.2,87,30.02,10.0,Calm,Calm,-,N/A,,Overcast,0,2013-02-15 10:15:00
5:35 AM,32.0,30.2,93,30.02,10.0,Calm,Calm,-,N/A,,Overcast,0,2013-02-15 10:35:00
5:55 AM,32.0,30.2,93,30.02,10.0,Calm,Calm,-,N/A,,Mostly Cloudy,0,2013-02-15 10:55:00
6:15 AM,32.0,30.2,93,30.03,10.0,Calm,Calm,-,N/A,,Overcast,0,2013-02-15 11:15:00
6:35 AM,33.8,32.0,93,30.04,10.0,Calm,Calm,-,N/A,,Overcast,0,2013-02-15 11:35:00
6:55 AM,33.8,32.0,93,30.05,7.0,WNW,4.6,-,N/A,,Overcast,300,2013-02-15 11:55:00
7:15 AM,33.8,32.0,93,30.06,10.0,NW,3.5,-,N/A,,Overcast,320,2013-02-15 12:15:00
7:35 AM,35.6,32.0,87,30.06,10.0,Calm,Calm,-,N/A,,Overcast,0,2013-02-15 12:35:00
7:55 AM,35.6,32.0,87,30.06,10.0,SSE,4.6,-,N/A,,Overcast,150,2013-02-15 12:55:00
8:15 AM,35.6,32.0,87,30.07,10.0,Calm,Calm,-,N/A,,Overcast,0,2013-02-15 13:15:00
8:35 AM,35.6,33.8,93,30.08,7.0,WNW,3.5,-,N/A,,Overcast,290,2013-02-15 13:35:00
8:55 AM,35.6,32.0,87,30.08,3.0,North,5.8,-,N/A,,Overcast,350,2013-02-15 13:55:00
9:15 AM,35.6,32.0,87,30.09,10.0,Calm,Calm,-,N/A,,Overcast,0,2013-02-15 14:15:00
9:35 AM,35.6,33.8,93,30.08,10.0,Calm,Calm,-,N/A,,Overcast,0,2013-02-15 14:35:00
9:55 AM,35.6,33.8,93,30.07,10.0,SE,5.8,-,N/A,,Overcast,140,2013-02-15 14:55:00
10:15 AM,35.6,33.8,93,30.08,10.0,Calm,Calm,-,N/A,,Overcast,0,2013-02-15 15:15:00
10:35 AM,37.4,33.8,87,30.08,10.0,Calm,Calm,-,N/A,,Overcast,0,2013-02-15 15:35:00
10:55 AM,37.4,33.8,87,30.07,10.0,SSE,3.5,-,N/A,,Overcast,160,2013-02-15 15:55:00
11:15 AM,37.4,33.8,87,30.08,10.0,Calm,Calm,-,N/A,,Overcast,0,2013-02-15 16:15:00
11:35 AM,39.2,33.8,81,30.08,10.0,WNW,3.5,-,N/A,,Overcast,290,2013-02-15 16:35:00
12:15 PM,39.2,33.8,81,30.08,10.0,West,4.6,-,N/A,,Overcast,280,2013-02-15 17:15:00
12:35 PM,39.2,33.8,81,30.08,10.0,WSW,5.8,-,N/A,,Overcast,250,2013-02-15 17:35:00
12:55 PM,41.0,33.8,76,30.07,10.0,West,6.9,-,N/A,,Overcast,260,2013-02-15 17:55:00
1:15 PM,41.0,32.0,70,30.07,10.0,West,5.8,-,N/A,,Overcast,270,2013-02-15 18:15:00
1:35 PM,39.2,32.0,75,30.07,10.0,NW,12.7,-,N/A,,Overcast,320,2013-02-15 18:35:00
1:55 PM,37.4,32.0,81,30.07,10.0,NW,12.7,-,N/A,,Overcast,320,2013-02-15 18:55:00
2:15 PM,37.4,32.0,81,30.07,10.0,NW,10.4,-,N/A,,Overcast,320,2013-02-15 19:15:00
2:35 PM,35.6,32.0,87,30.08,10.0,NW,6.9,-,N/A,,Overcast,310,2013-02-15 19:35:00
2:55 PM,37.4,32.0,81,30.08,10.0,WNW,5.8,-,N/A,,Overcast,290,2013-02-15 19:55:00
3:15 PM,37.4,32.0,81,30.07,10.0,West,6.9,-,N/A,,Overcast,270,2013-02-15 20:15:00
3:35 PM,37.4,32.0,81,30.07,10.0,West,5.8,-,N/A,,Overcast,280,2013-02-15 20:35:00
3:55 PM,37.4,32.0,81,30.07,10.0,West,6.9,-,N/A,,Overcast,270,2013-02-15 20:55:00
4:15 PM,37.4,32.0,81,30.07,10.0,West,6.9,-,N/A,,Overcast,260,2013-02-15 21:15:00
4:35 PM,39.2,32.0,75,30.08,10.0,West,4.6,-,N/A,,Overcast,260,2013-02-15 21:35:00
4:55 PM,37.4,32.0,81,30.08,10.0,West,6.9,-,N/A,,Overcast,270,2013-02-15 21:55:00
5:15 PM,35.6,30.2,81,30.08,3.0,WNW,12.7,19.6,N/A,,Overcast,290,2013-02-15 22:15:00
5:35 PM,33.8,32.0,93,30.08,10.0,WSW,6.9,-,N/A,,Overcast,240,2013-02-15 22:35:00
5:55 PM,35.6,32.0,87,30.08,10.0,WSW,5.8,-,N/A,,Mostly Cloudy,250,2013-02-15 22:55:00
6:15 PM,33.8,32.0,93,30.08,10.0,WSW,4.6,-,N/A,,Mostly Cloudy,250,2013-02-15 23:15:00
6:35 PM,33.8,32.0,93,30.09,10.0,NNW,3.5,-,N/A,,Mostly Cloudy,340,2013-02-15 23:35:00
6:55 PM,33.8,32.0,93,30.10,10.0,Calm,Calm,-,N/A,,Overcast,0,2013-02-15 23:55:00
7:15 PM,33.8,32.0,93,30.10,10.0,Calm,Calm,-,N/A,,Mostly Cloudy,0,2013-02-16 00:15:00
7:35 PM,33.8,32.0,93,30.10,10.0,Calm,Calm,-,N/A,,Mostly Cloudy,0,2013-02-16 00:35:00
7:55 PM,33.8,32.0,93,30.11,10.0,West,4.6,-,N/A,,Overcast,280,2013-02-16 00:55:00
8:15 PM,33.8,30.2,87,30.11,10.0,NW,5.8,-,N/A,,Mostly Cloudy,310,2013-02-16 01:15:00
8:35 PM,32.0,26.6,80,30.11,10.0,NW,6.9,-,N/A,,Scattered Clouds,310,2013-02-16 01:35:00
8:55 PM,32.0,24.8,75,30.12,10.0,NW,6.9,-,N/A,,Clear,310,2013-02-16 01:55:00
9:15 PM,32.0,23.0,69,30.12,10.0,NW,6.9,-,N/A,,Clear,310,2013-02-16 02:15:00
9:35 PM,32.0,23.0,69,30.12,10.0,NW,5.8,-,N/A,,Clear,310,2013-02-16 02:35:00
9:55 PM,32.0,21.2,64,30.13,10.0,WNW,4.6,-,N/A,,Clear,300,2013-02-16 02:55:00
10:15 PM,30.2,21.2,69,30.13,10.0,NW,5.8,-,N/A,,Clear,310,2013-02-16 03:15:00
10:35 PM,30.2,21.2,69,30.14,10.0,NNW,5.8,-,N/A,,Clear,330,2013-02-16 03:35:00
10:55 PM,30.2,21.2,69,30.13,10.0,NNW,5.8,-,N/A,,Scattered Clouds,340,2013-02-16 03:55:00
11:15 PM,30.2,23.0,75,30.13,10.0,NNW,4.6,-,N/A,,Overcast,340,2013-02-16 04:15:00
11:35 PM,28.4,23.0,80,30.13,10.0,NNW,5.8,-,N/A,,Overcast,340,2013-02-16 04:35:00
11:55 PM,28.4,23.0,80,30.13,10.0,NNW,4.6,-,N/A,,Mostly Cloudy,330,2013-02-16 04:55:00